Time,TemperatureF,DewpointF,PressureIn,WindDirection,WindDirectionDegrees,WindSpeedMPH,WindSpeedGustMPH,Humidity,HourlyPrecipIn,Conditions,Clouds,dailyrainin,SolarRadiationWatts/m^2,SoftwareType,DateUTC
2013-07-12 00:02:00,73.0,63.0,29.81,North,360,8.0,-999.0,72,-99.99,,,-99.99,0.000000,,2013-07-12 05:02:00,
2013-07-12 00:11:00,72.0,62.0,29.81,SSE,149,8.0,-999.0,72,-99.99,,,-99.99,0.000000,,2013-07-12 05:11:00,
2013-07-12 00:22:00,72.0,62.0,29.81,SSE,149,8.0,-999.0,72,-99.99,,,-99.99,0.000000,,2013-07-12 05:22:00,
2013-07-12 00:32:00,72.0,62.0,29.81,North,360,8.0,-999.0,71,-99.99,,,-99.99,0.000000,,2013-07-12 05:32:00,
2013-07-12 00:43:00,72.0,62.0,29.81,SSE,149,8.0,-999.0,72,-99.99,,,-99.99,0.000000,,2013-07-12 05:43:00,
2013-07-12 00:53:00,72.0,62.0,29.81,SSE,149,8.0,-999.0,72,-99.99,,,-99.99,0.000000,,2013-07-12 05:53:00,
2013-07-12 01:01:00,72.0,62.0,29.81,SE,136,7.0,-999.0,72,-99.99,,,-99.99,0.000000,,2013-07-12 06:01:00,
2013-07-12 01:11:00,72.0,62.0,29.81,SE,136,7.0,-999.0,72,-99.99,,,-99.99,0.000000,,2013-07-12 06:11:00,
2013-07-12 01:22:00,71.0,62.0,29.81,SE,140,7.0,-999.0,73,-99.99,,,-99.99,0.000000,,2013-07-12 06:22:00,
2013-07-12 01:33:00,71.0,62.0,29.81,SSE,150,7.0,-999.0,74,-99.99,,,-99.99,0.000000,,2013-07-12 06:33:00,
2013-07-12 01:42:00,71.0,62.0,29.81,SSE,150,7.0,-999.0,74,-99.99,,,-99.99,0.000000,,2013-07-12 06:42:00,
2013-07-12 01:52:00,71.0,63.0,29.81,SE,133,6.0,-999.0,75,-99.99,,,-99.99,0.000000,,2013-07-12 06:52:00,
2013-07-12 02:02:00,70.0,62.0,29.80,SSE,148,8.0,-999.0,75,-99.99,,,-99.99,0.000000,,2013-07-12 07:02:00,
2013-07-12 02:12:00,70.0,62.0,29.80,SSE,148,8.0,-999.0,75,-99.99,,,-99.99,0.000000,,2013-07-12 07:12:00,
2013-07-12 02:22:00,70.0,62.0,29.80,SSE,147,9.0,-999.0,75,-99.99,,,-99.99,0.000000,,2013-07-12 07:22:00,
2013-07-12 02:32:00,70.0,62.0,29.80,SSE,160,8.0,-999.0,76,-99.99,,,-99.99,0.000000,,2013-07-12 07:32:00,
2013-07-12 02:43:00,70.0,62.0,29.80,SSE,160,8.0,-999.0,76,-99.99,,,-99.99,0.000000,,2013-07-12 07:43:00,
2013-07-12 02:52:00,70.0,62.0,29.79,SE,142,9.0,-999.0,76,-99.99,,,-99.99,0.000000,,2013-07-12 07:52:00,
2013-07-12 03:01:00,70.0,62.0,29.79,North,360,9.0,-999.0,76,-99.99,,,-99.99,0.000000,,2013-07-12 08:01:00,
2013-07-12 03:11:00,70.0,62.0,29.79,North,360,9.0,-999.0,76,-99.99,,,-99.99,0.000000,,2013-07-12 08:11:00,
2013-07-12 03:21:00,70.0,62.0,29.79,SSE,157,8.0,-999.0,77,-99.99,,,-99.99,0.000000,,2013-07-12 08:21:00,
2013-07-12 03:32:00,69.0,61.0,29.79,SSE,160,8.0,-999.0,77,-99.99,,,-99.99,0.000000,,2013-07-12 08:32:00,
2013-07-12 03:42:00,69.0,61.0,29.79,SSE,160,8.0,-999.0,77,-99.99,,,-99.99,0.000000,,2013-07-12 08:42:00,
2013-07-12 03:53:00,69.0,61.0,29.79,North,360,8.0,-999.0,77,-99.99,,,-99.99,0.000000,,2013-07-12 08:53:00,
2013-07-12 04:02:00,69.0,62.0,29.79,North,360,7.0,-999.0,78,-99.99,,,-99.99,0.000000,,2013-07-12 09:02:00,
2013-07-12 04:12:00,69.0,62.0,29.79,North,360,7.0,-999.0,78,-99.99,,,-99.99,0.000000,,2013-07-12 09:12:00,
2013-07-12 04:22:00,69.0,62.0,29.79,SSE,150,8.0,-999.0,78,-99.99,,,-99.99,0.000000,,2013-07-12 09:22:00,
2013-07-12 04:32:00,68.0,61.0,29.79,SE,144,7.0,-999.0,77,-99.99,,,-99.99,0.000000,,2013-07-12 09:32:00,
2013-07-12 04:42:00,68.0,61.0,29.79,SE,144,7.0,-999.0,77,-99.99,,,-99.99,0.000000,,2013-07-12 09:42:00,
2013-07-12 04:52:00,68.0,61.0,29.80,SSE,161,5.0,-999.0,77,-99.99,,,-99.99,0.000000,,2013-07-12 09:52:00,
2013-07-12 05:01:00,68.0,60.0,29.79,SE,138,7.0,-999.0,76,-99.99,,,-99.99,0.000000,,2013-07-12 10:01:00,
2013-07-12 05:11:00,68.0,60.0,29.79,SE,138,7.0,-999.0,76,-99.99,,,-99.99,0.000000,,2013-07-12 10:11:00,
2013-07-12 05:22:00,68.0,60.0,29.79,SE,130,8.0,-999.0,76,-99.99,,,-99.99,0.000000,,2013-07-12 10:22:00,
2013-07-12 05:33:00,68.0,60.0,29.79,SE,138,9.0,-999.0,76,-99.99,,,-99.99,0.000000,,2013-07-12 10:33:00,
2013-07-12 05:42:00,68.0,60.0,29.79,SE,138,9.0,-999.0,76,-99.99,,,-99.99,0.000000,,2013-07-12 10:42:00,
2013-07-12 05:52:00,68.0,61.0,29.80,SE,146,7.0,-999.0,77,-99.99,,,-99.99,0.000000,,2013-07-12 10:52:00,
2013-07-12 06:02:00,68.0,61.0,29.80,SE,146,7.0,-999.0,77,-99.99,,,-99.99,0.000000,,2013-07-12 11:02:00,
2013-07-12 06:11:00,67.0,60.0,29.80,SSE,148,7.0,-999.0,78,-99.99,,,-99.99,5.000000,,2013-07-12 11:11:00,
2013-07-12 06:22:00,67.0,60.0,29.80,SE,130,9.0,-999.0,78,-99.99,,,-99.99,12.000000,,2013-07-12 11:22:00,
2013-07-12 06:32:00,67.0,60.0,29.80,SE,130,9.0,-999.0,78,-99.99,,,-99.99,12.000000,,2013-07-12 11:32:00,
2013-07-12 06:43:00,67.0,60.0,29.80,SE,129,10.0,-999.0,79,-99.99,,,-99.99,19.000000,,2013-07-12 11:43:00,
2013-07-12 06:52:00,67.0,60.0,29.79,SE,145,9.0,-999.0,79,-99.99,,,-99.99,30.000000,,2013-07-12 11:52:00,
2013-07-12 07:01:00,67.0,60.0,29.79,SE,145,9.0,-999.0,79,-99.99,,,-99.99,30.000000,,2013-07-12 12:01:00,
2013-07-12 07:11:00,67.0,60.0,29.79,SE,134,9.0,-999.0,79,-99.99,,,-99.99,53.000000,,2013-07-12 12:11:00,
2013-07-12 07:22:00,68.0,61.0,29.79,SE,145,9.0,-999.0,77,-99.99,,,-99.99,104.000000,,2013-07-12 12:22:00,
2013-07-12 07:32:00,68.0,61.0,29.79,SE,145,9.0,-999.0,77,-99.99,,,-99.99,104.000000,,2013-07-12 12:32:00,
2013-07-12 07:43:00,69.0,61.0,29.79,SE,146,9.0,-999.0,75,-99.99,,,-99.99,146.000000,,2013-07-12 12:43:00,
2013-07-12 07:52:00,70.0,61.0,29.79,SSE,153,11.0,-999.0,73,-99.99,,,-99.99,195.000000,,2013-07-12 12:52:00,
2013-07-12 08:01:00,70.0,61.0,29.79,SSE,153,11.0,-999.0,73,-99.99,,,-99.99,195.000000,,2013-07-12 13:01:00,
2013-07-12 08:12:00,71.0,62.0,29.79,SE,142,10.0,-999.0,72,-99.99,,,-99.99,225.000000,,2013-07-12 13:12:00,
2013-07-12 08:22:00,71.0,61.0,29.80,SE,142,11.0,-999.0,71,-99.99,,,-99.99,251.000000,,2013-07-12 13:22:00,
2013-07-12 08:32:00,71.0,61.0,29.80,SE,142,11.0,-999.0,71,-99.99,,,-99.99,251.000000,,2013-07-12 13:32:00,
2013-07-12 08:43:00,72.0,62.0,29.79,North,360,11.0,-999.0,71,-99.99,,,-99.99,323.000000,,2013-07-12 13:43:00,
2013-07-12 08:53:00,73.0,62.0,29.79,SE,134,10.0,-999.0,69,-99.99,,,-99.99,371.000000,,2013-07-12 13:53:00,
2013-07-12 09:02:00,73.0,62.0,29.79,SE,134,10.0,-999.0,69,-99.99,,,-99.99,371.000000,,2013-07-12 14:02:00,
2013-07-12 09:11:00,74.0,63.0,29.79,SSE,149,11.0,-999.0,68,-99.99,,,-99.99,413.000000,,2013-07-12 14:11:00,
2013-07-12 09:22:00,75.0,63.0,29.78,SSE,150,12.0,-999.0,66,-99.99,,,-99.99,455.000000,,2013-07-12 14:22:00,
2013-07-12 09:32:00,75.0,63.0,29.78,SSE,150,12.0,-999.0,66,-99.99,,,-99.99,455.000000,,2013-07-12 14:32:00,
2013-07-12 09:43:00,76.0,63.0,29.78,North,360,12.0,-999.0,64,-99.99,,,-99.99,503.000000,,2013-07-12 14:43:00,
2013-07-12 09:53:00,77.0,63.0,29.78,SE,146,13.0,-999.0,63,-99.99,,,-99.99,547.000000,,2013-07-12 14:53:00,
2013-07-12 10:01:00,77.0,63.0,29.78,SE,146,13.0,-999.0,63,-99.99,,,-99.99,547.000000,,2013-07-12 15:01:00,
2013-07-12 10:11:00,78.0,64.0,29.78,SE,133,12.0,-999.0,62,-99.99,,,-99.99,589.000000,,2013-07-12 15:11:00,
2013-07-12 10:22:00,79.0,65.0,29.77,SE,146,14.0,-999.0,62,-99.99,,,-99.99,642.000000,,2013-07-12 15:22:00,
2013-07-12 10:33:00,79.0,65.0,29.77,SE,146,14.0,-999.0,62,-99.99,,,-99.99,642.000000,,2013-07-12 15:33:00,
2013-07-12 10:43:00,80.0,66.0,29.76,SSE,153,13.0,-999.0,62,-99.99,,,-99.99,680.000000,,2013-07-12 15:43:00,
2013-07-12 10:52:00,80.0,66.0,29.76,SSE,153,13.0,-999.0,62,-99.99,,,-99.99,680.000000,,2013-07-12 15:52:00,
2013-07-12 11:01:00,80.0,65.0,29.76,SE,142,14.0,-999.0,60,-99.99,,,-99.99,406.000000,,2013-07-12 16:01:00,
2013-07-12 11:11:00,81.0,66.0,29.75,SE,133,15.0,-999.0,61,-99.99,,,-99.99,782.000000,,2013-07-12 16:11:00,
2013-07-12 11:22:00,81.0,66.0,29.75,SE,133,15.0,-999.0,61,-99.99,,,-99.99,782.000000,,2013-07-12 16:22:00,
2013-07-12 11:32:00,82.0,66.0,29.75,SSE,148,15.0,-999.0,59,-99.99,,,-99.99,810.000000,,2013-07-12 16:32:00,
2013-07-12 11:42:00,83.0,67.0,29.75,North,360,15.0,-999.0,58,-99.99,,,-99.99,765.000000,,2013-07-12 16:42:00,
2013-07-12 11:56:00,83.0,67.0,29.75,North,360,15.0,-999.0,58,-99.99,,,-99.99,765.000000,,2013-07-12 16:56:00,
2013-07-12 12:05:00,84.0,67.0,29.74,North,360,16.0,-999.0,57,-99.99,,,-99.99,851.000000,,2013-07-12 17:05:00,
2013-07-12 12:12:00,85.0,67.0,29.74,SSE,161,16.0,-999.0,55,-99.99,,,-99.99,884.000000,,2013-07-12 17:12:00,
2013-07-12 12:23:00,85.0,67.0,29.74,SSE,161,16.0,-999.0,55,-99.99,,,-99.99,884.000000,,2013-07-12 17:23:00,
2013-07-12 12:35:00,85.0,68.0,29.74,SSE,162,17.0,-999.0,56,-99.99,,,-99.99,680.000000,,2013-07-12 17:35:00,
2013-07-12 12:44:00,86.0,68.0,29.74,SE,144,17.0,-999.0,56,-99.99,,,-99.99,940.000000,,2013-07-12 17:44:00,
2013-07-12 12:53:00,86.0,68.0,29.74,SE,144,17.0,-999.0,56,-99.99,,,-99.99,940.000000,,2013-07-12 17:53:00,
2013-07-12 13:05:00,87.0,68.0,29.73,South,174,16.0,-999.0,54,-99.99,,,-99.99,830.000000,,2013-07-12 18:05:00,
2013-07-12 13:13:00,87.0,69.0,29.72,North,360,18.0,-999.0,55,-99.99,,,-99.99,962.000000,,2013-07-12 18:13:00,
2013-07-12 13:25:00,87.0,69.0,29.72,North,360,18.0,-999.0,55,-99.99,,,-99.99,962.000000,,2013-07-12 18:25:00,
2013-07-12 13:34:00,88.0,70.0,29.72,North,360,16.0,-999.0,55,-99.99,,,-99.99,977.000000,,2013-07-12 18:34:00,
2013-07-12 13:46:00,88.0,70.0,29.72,SSE,155,20.0,-999.0,56,-99.99,,,-99.99,970.000000,,2013-07-12 18:46:00,
2013-07-12 14:04:00,89.0,70.0,29.72,SE,128,19.0,-999.0,54,-99.99,,,-99.99,965.000000,,2013-07-12 19:04:00,
2013-07-12 14:22:00,90.0,71.0,29.72,South,184,16.0,-999.0,53,-99.99,,,-99.99,969.000000,,2013-07-12 19:22:00,
2013-07-12 14:33:00,89.0,71.0,29.72,North,360,19.0,-999.0,55,-99.99,,,-99.99,965.000000,,2013-07-12 19:33:00,
2013-07-12 14:44:00,90.0,71.0,29.71,South,174,17.0,-999.0,54,-99.99,,,-99.99,965.000000,,2013-07-12 19:44:00,
2013-07-12 15:02:00,90.0,72.0,29.71,SSE,154,19.0,-999.0,56,-99.99,,,-99.99,793.000000,,2013-07-12 20:02:00,
2013-07-12 15:13:00,90.0,72.0,29.70,SE,140,18.0,-999.0,55,-99.99,,,-99.99,889.000000,,2013-07-12 20:13:00,
2013-07-12 15:23:00,90.0,72.0,29.70,SE,140,18.0,-999.0,55,-99.99,,,-99.99,889.000000,,2013-07-12 20:23:00,
2013-07-12 15:33:00,90.0,72.0,29.70,North,360,16.0,-999.0,55,-99.99,,,-99.99,819.000000,,2013-07-12 20:33:00,
2013-07-12 15:43:00,90.0,72.0,29.70,North,360,16.0,-999.0,55,-99.99,,,-99.99,819.000000,,2013-07-12 20:43:00,
2013-07-12 15:54:00,91.0,72.0,29.70,SSE,161,19.0,-999.0,54,-99.99,,,-99.99,828.000000,,2013-07-12 20:54:00,
2013-07-12 16:02:00,91.0,72.0,29.70,SSE,148,18.0,-999.0,54,-99.99,,,-99.99,867.000000,,2013-07-12 21:02:00,
2013-07-12 16:14:00,91.0,72.0,29.70,SSE,148,18.0,-999.0,54,-99.99,,,-99.99,867.000000,,2013-07-12 21:14:00,
2013-07-12 16:25:00,91.0,72.0,29.70,SSE,148,18.0,-999.0,54,-99.99,,,-99.99,867.000000,,2013-07-12 21:25:00,
2013-07-12 16:33:00,91.0,72.0,29.69,SSE,156,21.0,-999.0,54,-99.99,,,-99.99,765.000000,,2013-07-12 21:33:00,
2013-07-12 16:45:00,91.0,72.0,29.69,SSE,156,21.0,-999.0,54,-99.99,,,-99.99,765.000000,,2013-07-12 21:45:00,
2013-07-12 16:58:00,91.0,72.0,29.70,North,360,17.0,-999.0,54,-99.99,,,-99.99,663.000000,,2013-07-12 21:58:00,
2013-07-12 17:03:00,92.0,73.0,29.70,SSE,161,18.0,-999.0,54,-99.99,,,-99.99,671.000000,,2013-07-12 22:03:00,
2013-07-12 17:15:00,92.0,73.0,29.70,SSE,161,18.0,-999.0,54,-99.99,,,-99.99,671.000000,,2013-07-12 22:15:00,
2013-07-12 17:23:00,92.0,72.0,29.70,SE,140,20.0,-999.0,53,-99.99,,,-99.99,638.000000,,2013-07-12 22:23:00,
2013-07-12 17:33:00,92.0,73.0,29.70,SSE,167,17.0,-999.0,54,-99.99,,,-99.99,582.000000,,2013-07-12 22:33:00,
2013-07-12 17:44:00,92.0,73.0,29.70,SSE,167,17.0,-999.0,54,-99.99,,,-99.99,582.000000,,2013-07-12 22:44:00,
2013-07-12 17:56:00,91.0,72.0,29.70,SSE,161,19.0,-999.0,54,-99.99,,,-99.99,548.000000,,2013-07-12 22:56:00,
2013-07-12 18:03:00,91.0,73.0,29.70,SE,141,17.0,-999.0,55,-99.99,,,-99.99,494.000000,,2013-07-12 23:03:00,
2013-07-12 18:12:00,91.0,73.0,29.70,SE,141,17.0,-999.0,55,-99.99,,,-99.99,494.000000,,2013-07-12 23:12:00,
2013-07-12 18:33:00,91.0,73.0,29.70,SE,144,14.0,-999.0,55,-99.99,,,-99.99,397.000000,,2013-07-12 23:33:00,
2013-07-12 18:43:00,91.0,73.0,29.70,SE,144,14.0,-999.0,55,-99.99,,,-99.99,397.000000,,2013-07-12 23:43:00,
2013-07-12 18:58:00,90.0,72.0,29.70,North,360,14.0,-999.0,55,-99.99,,,-99.99,348.000000,,2013-07-12 23:58:00,
2013-07-12 19:04:00,90.0,72.0,29.70,SE,146,16.0,-999.0,56,-99.99,,,-99.99,297.000000,,2013-07-13 00:04:00,
2013-07-12 19:25:00,89.0,71.0,29.69,SE,138,13.0,-999.0,56,-99.99,,,-99.99,246.000000,,2013-07-13 00:25:00,
2013-07-12 19:45:00,89.0,72.0,29.69,North,360,13.0,-999.0,57,-99.99,,,-99.99,123.000000,,2013-07-13 00:45:00,
2013-07-12 19:56:00,89.0,72.0,29.69,North,360,13.0,-999.0,57,-99.99,,,-99.99,123.000000,,2013-07-13 00:56:00,
2013-07-12 20:02:00,88.0,72.0,29.69,SSE,149,12.0,-999.0,59,-99.99,,,-99.99,155.000000,,2013-07-13 01:02:00,
2013-07-12 20:12:00,88.0,72.0,29.69,SSE,149,12.0,-999.0,59,-99.99,,,-99.99,155.000000,,2013-07-13 01:12:00,
2013-07-12 20:24:00,87.0,72.0,29.70,SSE,148,7.0,-999.0,61,-99.99,,,-99.99,19.000000,,2013-07-13 01:24:00,
2013-07-12 20:35:00,87.0,72.0,29.70,SSE,148,7.0,-999.0,61,-99.99,,,-99.99,19.000000,,2013-07-13 01:35:00,
2013-07-12 20:45:00,86.0,71.0,29.69,SSE,159,7.0,-999.0,62,-99.99,,,-99.99,21.000000,,2013-07-13 01:45:00,
2013-07-12 20:56:00,84.0,71.0,29.68,SSE,152,9.0,-999.0,65,-99.99,,,-99.99,12.000000,,2013-07-13 01:56:00,
2013-07-12 21:04:00,84.0,71.0,29.68,SSE,152,9.0,-999.0,65,-99.99,,,-99.99,12.000000,,2013-07-13 02:04:00,
2013-07-12 21:14:00,83.0,71.0,29.69,SE,136,7.0,-999.0,67,-99.99,,,-99.99,5.000000,,2013-07-13 02:14:00,
2013-07-12 21:22:00,82.0,71.0,29.69,SSE,153,6.0,-999.0,69,-99.99,,,-99.99,0.000000,,2013-07-13 02:22:00,
2013-07-12 21:35:00,82.0,71.0,29.69,SSE,153,6.0,-999.0,69,-99.99,,,-99.99,0.000000,,2013-07-13 02:35:00,
2013-07-12 21:46:00,82.0,71.0,29.68,SE,143,7.0,-999.0,69,-99.99,,,-99.99,0.000000,,2013-07-13 02:46:00,
2013-07-12 21:53:00,81.0,70.0,29.67,SE,145,11.0,-999.0,69,-99.99,,,-99.99,0.000000,,2013-07-13 02:53:00,
2013-07-12 22:04:00,81.0,70.0,29.67,SE,145,11.0,-999.0,69,-99.99,,,-99.99,0.000000,,2013-07-13 03:04:00,
2013-07-12 22:35:00,79.0,71.0,29.71,SE,128,11.0,-999.0,76,-99.99,,,-99.99,0.000000,,2013-07-13 03:35:00,
2013-07-12 22:44:00,79.0,70.0,29.71,SSE,148,4.0,-999.0,75,-99.99,,,-99.99,0.000000,,2013-07-13 03:44:00,
2013-07-12 22:54:00,79.0,69.0,29.72,SE,134,8.0,-999.0,72,-99.99,,,-99.99,0.000000,,2013-07-13 03:54:00,
2013-07-12 23:01:00,79.0,69.0,29.72,SE,134,8.0,-999.0,72,-99.99,,,-99.99,0.000000,,2013-07-13 04:01:00,
2013-07-12 23:11:00,79.0,69.0,29.75,NW,326,3.0,-999.0,72,-99.99,,,-99.99,0.000000,,2013-07-13 04:11:00,
2013-07-12 23:22:00,78.0,69.0,29.74,East,92,2.0,-999.0,75,-99.99,,,-99.99,0.000000,,2013-07-13 04:22:00,
2013-07-12 23:32:00,78.0,69.0,29.74,East,92,2.0,-999.0,75,-99.99,,,-99.99,0.000000,,2013-07-13 04:32:00,
2013-07-12 23:43:00,78.0,70.0,29.77,SE,144,0.0,-999.0,77,-99.99,,,-99.99,0.000000,,2013-07-13 04:43:00,
2013-07-12 23:52:00,78.0,70.0,29.77,SE,142,0.0,-999.0,77,-99.99,,,-99.99,0.000000,,2013-07-13 04:52:00,